2018-097E (43755 NORAD) Tracking and Keplerian Element Data

This shows tracking and keplerian element data for the satellite.

Feedback or suggestion? Click here.




ElementValue
Catalog43755
Name2018-097E
Epoch Orbit381
Epoch Day363.84699377
Epoch Year2018
RAAN113.4715
Inclination82.5146
Eccentricity0.0216238
Argument of Perigee202.0704
Mean Anonmoly157.098
Mean Motion12.80814349
Decay Rate-2.1E-07
L11 43755U 18097E 18363.84699377 -.00000021 00000-0 -12417-3 0 9996
L22 43755 82.5146 113.4715 0216238 202.0704 157.0980 12.80814349 3813

Live tracking and technical data element details for 2018-097E (NORAD 43755). 2018-097E can be tracked NOW for your location showing map with azimuth and elevation plus other details from your city location.

Track the satellite on the map from your city or location and see movement details for azimuth, elevation, latitude, longitude, range, height, and movement on the map or in text.







IsCatalogInMostPopularTable: catalog: 43755, numindb: 115
Update: records affected: 1



GetName: 43755 2018-097E

Hit Count: updated at: Fri, 19 Jul 2019 22:39:32 GMT